This demonstration page uses our WeatherBlox Daily Observations layout. Learn more.

39.29038, -76.61219

Hourly Observations for November 1, 2019

Temp ( °F °C ) Dew Point ( °F °C ) Humidity (%) Winds ( mph kmh ) Pressure ( in mb ) Visibility ( mi km ) Precip ( " mm )
12:54 am 00:54 undefined 52 11.1 42 5.6 69 69 undefined N/A 29.76 1008 N/A 0 0
1:54 am 01:54 undefined 51 10.6 32 0 48 48 undefined N/A 29.83 1010 N/A 0 0
2:54 am 02:54 undefined 48 8.9 30 -1.1 50 50 undefined N/A 29.87 1011 N/A 0 0
3:54 am 03:54 undefined 47 8.3 29 -1.7 50 50 undefined N/A 29.92 1013 N/A 0 0
4:54 am 04:54 undefined 46 7.8 28 -2.2 50 50 undefined N/A 29.98 1015 N/A 0 0
5:54 am 05:54 undefined 45 7.2 29 -1.7 54 54 undefined N/A 30.04 1017 N/A 0 0
6:54 am 06:54 undefined 45 7.2 28 -2.2 52 52 undefined N/A 30.07 1018 N/A 0 0
7:54 am 07:54 undefined 45 7.2 29 -1.7 54 54 undefined N/A 30.11 1020 N/A 0 0
8:54 am 08:54 undefined 47 8.3 29 -1.7 50 50 undefined N/A 30.14 1021 N/A 0 0
9:54 am 09:54 undefined 48 8.9 28 -2.2 46 46 undefined N/A 30.18 1022 N/A 0 0
10:54 am 10:54 undefined 50 10 28 -2.2 43 43 undefined N/A 30.21 1023 N/A 0 0
11:54 am 11:54 undefined 51 10.6 28 -2.2 41 41 undefined N/A 30.23 1024 N/A 0 0
12:54 pm 12:54 undefined 51 10.6 28 -2.2 41 41 undefined N/A 30.22 1023 N/A 0 0
1:54 pm 13:54 undefined 51 10.6 28 -2.2 41 41 undefined N/A 30.22 1023 N/A 0 0
2:54 pm 14:54 undefined 52 11.1 28 -2.2 40 40 undefined N/A 30.22 1023 N/A 0 0
3:54 pm 15:54 undefined 51 10.6 27 -2.8 39 39 undefined N/A 30.2 1023 N/A 0 0
4:54 pm 16:54 undefined 51 10.6 27 -2.8 39 39 undefined N/A 30.22 1024 N/A 0 0
5:54 pm 17:54 undefined 50 10 27 -2.8 41 41 undefined N/A 30.24 1024 N/A 0 0
6:54 pm 18:54 undefined 49 9.4 26 -3.3 41 41 undefined N/A 30.26 1025 N/A 0 0
7:54 pm 19:54 undefined 48 8.9 27 -2.8 44 44 undefined N/A 30.28 1025 N/A 0 0
8:54 pm 20:54 undefined 47 8.3 27 -2.8 46 46 undefined N/A 30.28 1026 N/A 0 0
9:54 pm 21:54 undefined 46 7.8 27 -2.8 47 47 undefined N/A 30.28 1026 N/A 0 0
10:54 pm 22:54 undefined 45 7.2 27 -2.8 49 49 undefined N/A 30.29 1026 N/A 0 0
11:54 pm 23:54 undefined 44 6.7 28 -2.2 53 53 undefined N/A 30.28 1026 N/A 0 0

Powered by AerisWeather